owner,sensor,date,latitude,longitude,vertical_datum,sea_water_practical_salinity,qcFlag 
DISL,ioos:station:DISL:PPTA:1,2017-12-01T00:00:00Z,30.2791,-87.5561,1.4,30.8,11111222 
DISL,ioos:station:DISL:PPTA:1,2017-12-01T00:30:00Z,30.2791,-87.5561,1.414,30.83,1111122 
DISL,ioos:station:DISL:PPTA:1,2017-12-01T01:00:00Z,30.2791,-87.5561,1.4,30.9,11111222 
DISL,ioos:station:DISL:PPTA:1,2017-12-01T01:30:00Z,30.2791,-87.5561,1.406,30.86,1111122 
DISL,ioos:station:DISL:PPTA:1,2017-12-01T02:00:00Z,30.2791,-87.5561,1.4,30.9,11111222 
DISL,ioos:station:DISL:PPTA:1,2017-12-01T02:30:00Z,30.2791,-87.5561,1.402,30.89,1111122 
DISL,ioos:station:DISL:PPTA:1,2017-12-01T03:00:00Z,30.2791,-87.5561,1.4,30.8,11111222 
DISL,ioos:station:DISL:PPTA:1,2017-12-01T03:30:00Z,30.2791,-87.5561,1.373,30.71,1111122 
DISL,ioos:station:DISL:PPTA:1,2017-12-01T04:00:00Z,30.2791,-87.5561,1.4,30.7,11111222 
DISL,ioos:station:DISL:PPTA:1,2017-12-01T04:30:00Z,30.2791,-87.5561,1.322,30.66,1111122 
DISL,ioos:station:DISL:PPTA:1,2017-12-01T05:00:00Z,30.2791,-87.5561,1.3,29.0,11111222 
DISL,ioos:station:DISL:PPTA:1,2017-12-01T05:30:00Z,30.2791,-87.5561,1.293,29.47,1111122 
DISL,ioos:station:DISL:PPTA:1,2017-12-01T06:00:00Z,30.2791,-87.5561,1.3,27.0,11111222 
DISL,ioos:station:DISL:PPTA:1,2017-12-01T06:30:00Z,30.2791,-87.5561,1.27,26.34,1111122 
DISL,ioos:station:DISL:PPTA:1,2017-12-01T07:00:00Z,30.2791,-87.5561,1.3,27.9,11111222 
DISL,ioos:station:DISL:PPTA:1,2017-12-01T07:30:00Z,30.2791,-87.5561,1.243,28.15,1111122 
DISL,ioos:station:DISL:PPTA:1,2017-12-01T08:00:00Z,30.2791,-87.5561,1.2,27.9,11111222 
DISL,ioos:station:DISL:PPTA:1,2017-12-01T08:30:00Z,30.2791,-87.5561,1.21,27.75,1111122 
DISL,ioos:station:DISL:PPTA:1,2017-12-01T09:00:00Z,30.2791,-87.5561,1.2,27.5,11111222 
DISL,ioos:station:DISL:PPTA:1,2017-12-01T09:30:00Z,30.2791,-87.5561,1.191,25.9,1111122 
DISL,ioos:station:DISL:PPTA:1,2017-12-01T10:00:00Z,30.2791,-87.5561,1.2,26.2,11111222 
DISL,ioos:station:DISL:PPTA:1,2017-12-01T10:30:00Z,30.2791,-87.5561,1.163,27.84,1111122 
DISL,ioos:station:DISL:PPTA:1,2017-12-01T11:00:00Z,30.2791,-87.5561,1.2,23.6,11111222 
DISL,ioos:station:DISL:PPTA:1,2017-12-01T11:30:00Z,30.2791,-87.5561,1.163,23.02,1111122 
DISL,ioos:station:DISL:PPTA:1,2017-12-01T12:00:00Z,30.2791,-87.5561,1.2,20.1,11111222 
DISL,ioos:station:DISL:PPTA:1,2017-12-01T12:30:00Z,30.2791,-87.5561,1.162,22.61,1111122 
DISL,ioos:station:DISL:PPTA:1,2017-12-01T13:00:00Z,30.2791,-87.5561,1.2,19.2,11111222 
DISL,ioos:station:DISL:PPTA:1,2017-12-01T13:30:00Z,30.2791,-87.5561,1.171,18.9,1111122 
DISL,ioos:station:DISL:PPTA:1,2017-12-01T14:00:00Z,30.2791,-87.5561,1.2,19.1,11111222 
DISL,ioos:station:DISL:PPTA:1,2017-12-01T14:30:00Z,30.2791,-87.5561,1.184,22.56,1111122 
DISL,ioos:station:DISL:PPTA:1,2017-12-01T15:00:00Z,30.2791,-87.5561,1.2,21.6,11111222 
DISL,ioos:station:DISL:PPTA:1,2017-12-01T15:30:00Z,30.2791,-87.5561,1.182,19.83,1111122 
DISL,ioos:station:DISL:PPTA:1,2017-12-01T16:00:00Z,30.2791,-87.5561,1.2,19.2,11111222 
DISL,ioos:station:DISL:PPTA:1,2017-12-01T16:30:00Z,30.2791,-87.5561,1.182,24.47,1111122 
DISL,ioos:station:DISL:PPTA:1,2017-12-01T17:00:00Z,30.2791,-87.5561,1.2,26.4,11111222 
DISL,ioos:station:DISL:PPTA:1,2017-12-01T17:30:00Z,30.2791,-87.5561,1.175,26.78,1111122 
DISL,ioos:station:DISL:PPTA:1,2017-12-01T18:00:00Z,30.2791,-87.5561,1.2,27.0,11111222 
DISL,ioos:station:DISL:PPTA:1,2017-12-01T18:30:00Z,30.2791,-87.5561,1.202,27.26,1111122 
DISL,ioos:station:DISL:PPTA:1,2017-12-01T19:00:00Z,30.2791,-87.5561,1.2,27.3,11111222 
DISL,ioos:station:DISL:PPTA:1,2017-12-01T19:30:00Z,30.2791,-87.5561,1.236,27.62,1111122 
DISL,ioos:station:DISL:PPTA:1,2017-12-01T20:00:00Z,30.2791,-87.5561,1.3,27.3,11111222 
DISL,ioos:station:DISL:PPTA:1,2017-12-01T20:30:00Z,30.2791,-87.5561,1.269,27.34,1111122 
DISL,ioos:station:DISL:PPTA:1,2017-12-01T21:00:00Z,30.2791,-87.5561,1.3,27.6,11111222 
DISL,ioos:station:DISL:PPTA:1,2017-12-01T21:30:00Z,30.2791,-87.5561,1.31,27.57,1111122 
DISL,ioos:station:DISL:PPTA:1,2017-12-01T22:00:00Z,30.2791,-87.5561,1.3,27.6,11111222 
DISL,ioos:station:DISL:PPTA:1,2017-12-01T22:30:00Z,30.2791,-87.5561,1.343,27.61,1111122 
DISL,ioos:station:DISL:PPTA:1,2017-12-01T23:00:00Z,30.2791,-87.5561,1.4,27.6,11111222 
DISL,ioos:station:DISL:PPTA:1,2017-12-01T23:30:00Z,30.2791,-87.5561,1.369,28.74,1111122 
DISL,ioos:station:DISL:PPTA:1,2017-12-02T00:00:00Z,30.2791,-87.5561,1.4,30.9,11111222 
DISL,ioos:station:DISL:PPTA:1,2017-12-02T00:30:00Z,30.2791,-87.5561,1.397,31.14,1111122 
DISL,ioos:station:DISL:PPTA:1,2017-12-02T01:00:00Z,30.2791,-87.5561,1.4,31.1,11111222 
DISL,ioos:station:DISL:PPTA:1,2017-12-02T01:30:00Z,30.2791,-87.5561,1.407,31.11,1111122 
DISL,ioos:station:DISL:PPTA:1,2017-12-02T02:00:00Z,30.2791,-87.5561,1.4,31.0,11111222 
DISL,ioos:station:DISL:PPTA:1,2017-12-02T02:30:00Z,30.2791,-87.5561,1.428,31.1,1111122 
DISL,ioos:station:DISL:PPTA:1,2017-12-02T03:00:00Z,30.2791,-87.5561,1.4,31.2,11111222 
DISL,ioos:station:DISL:PPTA:1,2017-12-02T03:30:00Z,30.2791,-87.5561,1.417,31.13,1111122 
DISL,ioos:station:DISL:PPTA:1,2017-12-02T04:00:00Z,30.2791,-87.5561,1.4,31.1,11111222 
DISL,ioos:station:DISL:PPTA:1,2017-12-02T04:30:00Z,30.2791,-87.5561,1.383,31.07,1111122 
DISL,ioos:station:DISL:PPTA:1,2017-12-02T05:00:00Z,30.2791,-87.5561,1.4,31.0,11111222 
DISL,ioos:station:DISL:PPTA:1,2017-12-02T05:30:00Z,30.2791,-87.5561,1.332,29.38,1111122 
DISL,ioos:station:DISL:PPTA:1,2017-12-02T06:00:00Z,30.2791,-87.5561,1.3,29.9,11111222 
DISL,ioos:station:DISL:PPTA:1,2017-12-02T06:30:00Z,30.2791,-87.5561,1.291,30.26,1111122 
DISL,ioos:station:DISL:PPTA:1,2017-12-02T07:00:00Z,30.2791,-87.5561,1.3,30.2,11111222 
DISL,ioos:station:DISL:PPTA:1,2017-12-02T07:30:00Z,30.2791,-87.5561,1.265,27.95,1111122 
DISL,ioos:station:DISL:PPTA:1,2017-12-02T08:00:00Z,30.2791,-87.5561,1.3,27.7,11111222 
DISL,ioos:station:DISL:PPTA:1,2017-12-02T08:30:00Z,30.2791,-87.5561,1.23,27.15,1111122 
DISL,ioos:station:DISL:PPTA:1,2017-12-02T09:00:00Z,30.2791,-87.5561,1.2,27.2,11111222 
DISL,ioos:station:DISL:PPTA:1,2017-12-02T09:30:00Z,30.2791,-87.5561,1.197,26.6,1111122 
DISL,ioos:station:DISL:PPTA:1,2017-12-02T10:00:00Z,30.2791,-87.5561,1.2,25.8,11111222 
DISL,ioos:station:DISL:PPTA:1,2017-12-02T10:30:00Z,30.2791,-87.5561,1.173,24.84,1111122 
DISL,ioos:station:DISL:PPTA:1,2017-12-02T11:00:00Z,30.2791,-87.5561,1.2,24.7,11111222 
DISL,ioos:station:DISL:PPTA:1,2017-12-02T11:30:00Z,30.2791,-87.5561,1.155,24.81,1111122 
DISL,ioos:station:DISL:PPTA:1,2017-12-02T12:00:00Z,30.2791,-87.5561,1.2,22.4,11111222 
DISL,ioos:station:DISL:PPTA:1,2017-12-02T12:30:00Z,30.2791,-87.5561,1.143,21.47,1111122 
DISL,ioos:station:DISL:PPTA:1,2017-12-02T13:00:00Z,30.2791,-87.5561,1.1,20.8,11111222 
DISL,ioos:station:DISL:PPTA:1,2017-12-02T13:30:00Z,30.2791,-87.5561,1.147,20.2,1111122 
DISL,ioos:station:DISL:PPTA:1,2017-12-02T14:00:00Z,30.2791,-87.5561,1.2,19.4,11111222 
DISL,ioos:station:DISL:PPTA:1,2017-12-02T14:30:00Z,30.2791,-87.5561,1.169,18.9,1111122 
DISL,ioos:station:DISL:PPTA:1,2017-12-02T15:00:00Z,30.2791,-87.5561,1.2,18.4,11111222 
DISL,ioos:station:DISL:PPTA:1,2017-12-02T15:30:00Z,30.2791,-87.5561,1.188,21.91,1111122 
DISL,ioos:station:DISL:PPTA:1,2017-12-02T16:00:00Z,30.2791,-87.5561,1.2,20.2,11111222 
DISL,ioos:station:DISL:PPTA:1,2017-12-02T16:30:00Z,30.2791,-87.5561,1.186,19.81,1111122 
DISL,ioos:station:DISL:PPTA:1,2017-12-02T17:00:00Z,30.2791,-87.5561,1.2,22.5,11111222 
DISL,ioos:station:DISL:PPTA:1,2017-12-02T17:30:00Z,30.2791,-87.5561,1.187,24.9,1111122 
DISL,ioos:station:DISL:PPTA:1,2017-12-02T18:00:00Z,30.2791,-87.5561,1.2,27.0,11111222 
DISL,ioos:station:DISL:PPTA:1,2017-12-02T18:30:00Z,30.2791,-87.5561,1.206,26.85,1111122 
DISL,ioos:station:DISL:PPTA:1,2017-12-02T19:00:00Z,30.2791,-87.5561,1.2,26.9,11111222 
DISL,ioos:station:DISL:PPTA:1,2017-12-02T19:30:00Z,30.2791,-87.5561,1.232,27.35,1111122 
DISL,ioos:station:DISL:PPTA:1,2017-12-02T20:00:00Z,30.2791,-87.5561,1.3,27.4,11111222 
DISL,ioos:station:DISL:PPTA:1,2017-12-02T20:30:00Z,30.2791,-87.5561,1.262,27.38,1111122 
DISL,ioos:station:DISL:PPTA:1,2017-12-02T21:00:00Z,30.2791,-87.5561,1.3,27.3,11111222 
DISL,ioos:station:DISL:PPTA:1,2017-12-02T21:30:00Z,30.2791,-87.5561,1.308,27.7,1111122 
DISL,ioos:station:DISL:PPTA:1,2017-12-02T22:00:00Z,30.2791,-87.5561,1.3,28.2,11111222 
DISL,ioos:station:DISL:PPTA:1,2017-12-02T22:30:00Z,30.2791,-87.5561,1.351,28.35,1111122 
DISL,ioos:station:DISL:PPTA:1,2017-12-02T23:00:00Z,30.2791,-87.5561,1.4,28.4,11111222 
DISL,ioos:station:DISL:PPTA:1,2017-12-02T23:30:00Z,30.2791,-87.5561,1.385,29.99,1111122 
DISL,ioos:station:DISL:PPTA:1,2017-12-03T00:00:00Z,30.2791,-87.5561,1.4,30.5,11111222 
DISL,ioos:station:DISL:PPTA:1,2017-12-03T00:30:00Z,30.2791,-87.5561,1.415,31.35,1111122 
DISL,ioos:station:DISL:PPTA:1,2017-12-03T01:00:00Z,30.2791,-87.5561,1.4,30.1,11111222 
DISL,ioos:station:DISL:PPTA:1,2017-12-03T01:30:00Z,30.2791,-87.5561,1.426,31.27,1111122 
DISL,ioos:station:DISL:PPTA:1,2017-12-03T02:00:00Z,30.2791,-87.5561,1.4,30.7,11111222 
DISL,ioos:station:DISL:PPTA:1,2017-12-03T02:30:00Z,30.2791,-87.5561,1.445,31.23,1111122 
DISL,ioos:station:DISL:PPTA:1,2017-12-03T03:00:00Z,30.2791,-87.5561,1.4,31.5,11111222 
DISL,ioos:station:DISL:PPTA:1,2017-12-03T03:30:00Z,30.2791,-87.5561,1.444,31.25,1111122 
DISL,ioos:station:DISL:PPTA:1,2017-12-03T04:00:00Z,30.2791,-87.5561,1.5,31.6,11111222 
DISL,ioos:station:DISL:PPTA:1,2017-12-03T04:30:00Z,30.2791,-87.5561,1.432,31.07,1111122 
DISL,ioos:station:DISL:PPTA:1,2017-12-03T05:00:00Z,30.2791,-87.5561,1.4,31.1,11111222 
DISL,ioos:station:DISL:PPTA:1,2017-12-03T05:30:00Z,30.2791,-87.5561,1.377,30.94,1111122 
DISL,ioos:station:DISL:PPTA:1,2017-12-03T06:00:00Z,30.2791,-87.5561,1.4,29.4,11111222 
DISL,ioos:station:DISL:PPTA:1,2017-12-03T06:30:00Z,30.2791,-87.5561,1.326,30.11,1111122 
DISL,ioos:station:DISL:PPTA:1,2017-12-03T07:00:00Z,30.2791,-87.5561,1.3,30.2,11111222 
DISL,ioos:station:DISL:PPTA:1,2017-12-03T07:30:00Z,30.2791,-87.5561,1.287,30.12,1111122 
DISL,ioos:station:DISL:PPTA:1,2017-12-03T08:00:00Z,30.2791,-87.5561,1.3,27.9,11111222 
DISL,ioos:station:DISL:PPTA:1,2017-12-03T08:30:00Z,30.2791,-87.5561,1.257,26.83,1111122 
DISL,ioos:station:DISL:PPTA:1,2017-12-03T09:00:00Z,30.2791,-87.5561,1.2,25.3,11111222 
DISL,ioos:station:DISL:PPTA:1,2017-12-03T09:30:00Z,30.2791,-87.5561,1.216,24.97,1111122 
DISL,ioos:station:DISL:PPTA:1,2017-12-03T10:00:00Z,30.2791,-87.5561,1.2,25.1,11111222 
DISL,ioos:station:DISL:PPTA:1,2017-12-03T10:30:00Z,30.2791,-87.5561,1.187,25.54,1111122 
DISL,ioos:station:DISL:PPTA:1,2017-12-03T11:00:00Z,30.2791,-87.5561,1.2,25.6,11111222 
DISL,ioos:station:DISL:PPTA:1,2017-12-03T11:30:00Z,30.2791,-87.5561,1.171,23.98,1111122 
DISL,ioos:station:DISL:PPTA:1,2017-12-03T12:00:00Z,30.2791,-87.5561,1.2,24.1,11111222 
DISL,ioos:station:DISL:PPTA:1,2017-12-03T12:30:00Z,30.2791,-87.5561,1.154,21.93,1111122 
DISL,ioos:station:DISL:PPTA:1,2017-12-03T13:00:00Z,30.2791,-87.5561,1.1,21.8,11111222 
DISL,ioos:station:DISL:PPTA:1,2017-12-03T13:30:00Z,30.2791,-87.5561,1.137,21.12,1111122 
DISL,ioos:station:DISL:PPTA:1,2017-12-03T14:00:00Z,30.2791,-87.5561,1.1,20.9,11111222 
DISL,ioos:station:DISL:PPTA:1,2017-12-03T14:30:00Z,30.2791,-87.5561,1.146,20.01,1111122 
DISL,ioos:station:DISL:PPTA:1,2017-12-03T15:00:00Z,30.2791,-87.5561,1.2,19.3,11111222 
DISL,ioos:station:DISL:PPTA:1,2017-12-03T15:30:00Z,30.2791,-87.5561,1.181,18.59,1111122 
DISL,ioos:station:DISL:PPTA:1,2017-12-03T16:00:00Z,30.2791,-87.5561,1.2,20.6,11111222 
DISL,ioos:station:DISL:PPTA:1,2017-12-03T16:30:00Z,30.2791,-87.5561,1.197,18.88,1111122 
DISL,ioos:station:DISL:PPTA:1,2017-12-03T17:00:00Z,30.2791,-87.5561,1.2,21.6,11111222 
DISL,ioos:station:DISL:PPTA:1,2017-12-03T17:30:00Z,30.2791,-87.5561,1.218,20.49,1111122 
DISL,ioos:station:DISL:PPTA:1,2017-12-03T18:00:00Z,30.2791,-87.5561,1.2,25.8,11111222 
DISL,ioos:station:DISL:PPTA:1,2017-12-03T18:30:00Z,30.2791,-87.5561,1.224,26.73,1111122 
DISL,ioos:station:DISL:PPTA:1,2017-12-03T19:00:00Z,30.2791,-87.5561,1.3,27.0,11111222 
DISL,ioos:station:DISL:PPTA:1,2017-12-03T19:30:00Z,30.2791,-87.5561,1.274,27.4,1111122 
DISL,ioos:station:DISL:PPTA:1,2017-12-03T20:00:00Z,30.2791,-87.5561,1.3,27.4,11111222 
DISL,ioos:station:DISL:PPTA:1,2017-12-03T20:30:00Z,30.2791,-87.5561,1.28,28.13,1111122 
DISL,ioos:station:DISL:PPTA:1,2017-12-03T21:00:00Z,30.2791,-87.5561,1.3,27.9,11111222 
DISL,ioos:station:DISL:PPTA:1,2017-12-03T21:30:00Z,30.2791,-87.5561,1.333,27.99,1111122 
DISL,ioos:station:DISL:PPTA:1,2017-12-03T22:00:00Z,30.2791,-87.5561,1.4,27.8,11111222 
DISL,ioos:station:DISL:PPTA:1,2017-12-03T22:30:00Z,30.2791,-87.5561,1.382,27.91,1111122 
DISL,ioos:station:DISL:PPTA:1,2017-12-03T23:00:00Z,30.2791,-87.5561,1.4,29.6,11111222 
DISL,ioos:station:DISL:PPTA:1,2017-12-03T23:30:00Z,30.2791,-87.5561,1.421,30.03,1111122 
DISL,ioos:station:DISL:PPTA:1,2017-12-04T00:30:00Z,30.2791,-87.5561,1.45,31.59,1111122 
DISL,ioos:station:DISL:PPTA:1,2017-12-04T01:00:00Z,30.2791,-87.5561,1.5,30.5,11111222 
DISL,ioos:station:DISL:PPTA:1,2017-12-04T01:30:00Z,30.2791,-87.5561,1.484,30.4,1111122 
DISL,ioos:station:DISL:PPTA:1,2017-12-04T02:00:00Z,30.2791,-87.5561,1.482,31.55,1111122 
DISL,ioos:station:DISL:PPTA:1,2017-12-04T02:30:00Z,30.2791,-87.5561,1.5,31.5,11111222 
DISL,ioos:station:DISL:PPTA:1,2017-12-04T03:00:00Z,30.2791,-87.5561,1.5,30.8,11111222 
DISL,ioos:station:DISL:PPTA:1,2017-12-04T03:30:00Z,30.2791,-87.5561,1.494,31.27,1111122 
DISL,ioos:station:DISL:PPTA:1,2017-12-04T04:00:00Z,30.2791,-87.5561,1.5,31.2,11111222 
DISL,ioos:station:DISL:PPTA:1,2017-12-04T04:30:00Z,30.2791,-87.5561,1.48,31.48,1111122 
DISL,ioos:station:DISL:PPTA:1,2017-12-04T05:00:00Z,30.2791,-87.5561,1.5,31.4,11111222 
DISL,ioos:station:DISL:PPTA:1,2017-12-04T05:30:00Z,30.2791,-87.5561,1.478,31.35,1111122 
DISL,ioos:station:DISL:PPTA:1,2017-12-04T06:00:00Z,30.2791,-87.5561,1.4,31.3,11111222 
DISL,ioos:station:DISL:PPTA:1,2017-12-04T06:30:00Z,30.2791,-87.5561,1.413,31.43,1111122 
DISL,ioos:station:DISL:PPTA:1,2017-12-04T07:00:00Z,30.2791,-87.5561,1.4,30.7,11111222 
DISL,ioos:station:DISL:PPTA:1,2017-12-04T07:30:00Z,30.2791,-87.5561,1.36,31.28,1111122 
DISL,ioos:station:DISL:PPTA:1,2017-12-04T08:00:00Z,30.2791,-87.5561,1.4,30.8,11111222 
DISL,ioos:station:DISL:PPTA:1,2017-12-04T08:30:00Z,30.2791,-87.5561,1.33,30.76,1111122 
DISL,ioos:station:DISL:PPTA:1,2017-12-04T09:00:00Z,30.2791,-87.5561,1.301,28.52,1111122 
DISL,ioos:station:DISL:PPTA:1,2017-12-04T09:30:00Z,30.2791,-87.5561,1.3,27.5,11111222 
DISL,ioos:station:DISL:PPTA:1,2017-12-04T10:00:00Z,30.2791,-87.5561,1.3,27.4,11111222 
DISL,ioos:station:DISL:PPTA:1,2017-12-04T10:30:00Z,30.2791,-87.5561,1.257,26.79,1111122 
DISL,ioos:station:DISL:PPTA:1,2017-12-04T11:00:00Z,30.2791,-87.5561,1.2,26.4,11111222 
DISL,ioos:station:DISL:PPTA:1,2017-12-04T11:30:00Z,30.2791,-87.5561,1.224,26.36,1111122 
DISL,ioos:station:DISL:PPTA:1,2017-12-04T12:00:00Z,30.2791,-87.5561,1.2,24.5,11111222 
DISL,ioos:station:DISL:PPTA:1,2017-12-04T12:30:00Z,30.2791,-87.5561,1.206,25.35,1111122 
DISL,ioos:station:DISL:PPTA:1,2017-12-04T13:00:00Z,30.2791,-87.5561,1.2,23.0,11111222 
DISL,ioos:station:DISL:PPTA:1,2017-12-04T13:30:00Z,30.2791,-87.5561,1.186,22.6,1111122 
DISL,ioos:station:DISL:PPTA:1,2017-12-04T14:00:00Z,30.2791,-87.5561,1.2,22.5,11111222 
DISL,ioos:station:DISL:PPTA:1,2017-12-04T14:30:00Z,30.2791,-87.5561,1.162,21.89,1111122 
DISL,ioos:station:DISL:PPTA:1,2017-12-04T15:00:00Z,30.2791,-87.5561,1.2,21.6,11111222 
DISL,ioos:station:DISL:PPTA:1,2017-12-04T15:30:00Z,30.2791,-87.5561,1.19,21.35,1111122 
DISL,ioos:station:DISL:PPTA:1,2017-12-04T16:00:00Z,30.2791,-87.5561,1.2,21.4,11111222 
DISL,ioos:station:DISL:PPTA:1,2017-12-04T16:30:00Z,30.2791,-87.5561,1.218,20.37,1111122 
DISL,ioos:station:DISL:PPTA:1,2017-12-04T17:00:00Z,30.2791,-87.5561,1.2,19.3,11111222 
DISL,ioos:station:DISL:PPTA:1,2017-12-04T17:30:00Z,30.2791,-87.5561,1.245,19.36,1111122 
DISL,ioos:station:DISL:PPTA:1,2017-12-04T18:00:00Z,30.2791,-87.5561,1.2,19.0,11111222 
DISL,ioos:station:DISL:PPTA:1,2017-12-04T18:30:00Z,30.2791,-87.5561,1.262,22.08,1111122 
DISL,ioos:station:DISL:PPTA:1,2017-12-04T19:00:00Z,30.2791,-87.5561,1.3,22.9,11111222 
DISL,ioos:station:DISL:PPTA:1,2017-12-04T19:30:00Z,30.2791,-87.5561,1.269,25.79,1111122 
DISL,ioos:station:DISL:PPTA:1,2017-12-04T20:00:00Z,30.2791,-87.5561,1.3,27.2,11111222 
DISL,ioos:station:DISL:PPTA:1,2017-12-04T20:30:00Z,30.2791,-87.5561,1.315,27.79,1111122 
DISL,ioos:station:DISL:PPTA:1,2017-12-04T21:00:00Z,30.2791,-87.5561,1.3,28.2,11111222 
DISL,ioos:station:DISL:PPTA:1,2017-12-04T21:30:00Z,30.2791,-87.5561,1.335,28.45,1111122 
DISL,ioos:station:DISL:PPTA:1,2017-12-04T22:00:00Z,30.2791,-87.5561,1.4,29.0,11111222 
DISL,ioos:station:DISL:PPTA:1,2017-12-04T22:30:00Z,30.2791,-87.5561,1.396,29.29,1111122 
DISL,ioos:station:DISL:PPTA:1,2017-12-04T23:00:00Z,30.2791,-87.5561,1.4,29.4,11111222 
DISL,ioos:station:DISL:PPTA:1,2017-12-04T23:30:00Z,30.2791,-87.5561,1.454,30.87,1111122 
DISL,ioos:station:DISL:PPTA:1,2017-12-05T00:00:00Z,30.2791,-87.5561,1.5,31.1,11111222 
DISL,ioos:station:DISL:PPTA:1,2017-12-05T00:30:00Z,30.2791,-87.5561,1.505,30.68,1111122 
DISL,ioos:station:DISL:PPTA:1,2017-12-05T01:00:00Z,30.2791,-87.5561,1.5,30.9,11111222 
DISL,ioos:station:DISL:PPTA:1,2017-12-05T01:30:00Z,30.2791,-87.5561,1.552,30.97,1111122 
DISL,ioos:station:DISL:PPTA:1,2017-12-05T02:00:00Z,30.2791,-87.5561,1.6,31.0,11111222 
DISL,ioos:station:DISL:PPTA:1,2017-12-05T02:30:00Z,30.2791,-87.5561,1.561,30.99,1111122 
DISL,ioos:station:DISL:PPTA:1,2017-12-05T03:00:00Z,30.2791,-87.5561,1.6,31.4,11111222 
DISL,ioos:station:DISL:PPTA:1,2017-12-05T03:30:00Z,30.2791,-87.5561,1.568,31.11,1111122 
DISL,ioos:station:DISL:PPTA:1,2017-12-05T04:00:00Z,30.2791,-87.5561,1.6,31.0,11111222 
DISL,ioos:station:DISL:PPTA:1,2017-12-05T04:30:00Z,30.2791,-87.5561,1.591,31.03,1111122 
DISL,ioos:station:DISL:PPTA:1,2017-12-05T05:00:00Z,30.2791,-87.5561,1.6,31.1,11111222 
DISL,ioos:station:DISL:PPTA:1,2017-12-05T05:30:00Z,30.2791,-87.5561,1.576,31.1,1111122 
DISL,ioos:station:DISL:PPTA:1,2017-12-05T06:00:00Z,30.2791,-87.5561,1.6,31.1,11111222 
DISL,ioos:station:DISL:PPTA:1,2017-12-05T06:30:00Z,30.2791,-87.5561,1.545,31.01,1111122 
DISL,ioos:station:DISL:PPTA:1,2017-12-05T07:00:00Z,30.2791,-87.5561,1.5,31.1,11111222 
DISL,ioos:station:DISL:PPTA:1,2017-12-05T07:30:00Z,30.2791,-87.5561,1.486,30.99,1111122 
DISL,ioos:station:DISL:PPTA:1,2017-12-05T08:00:00Z,30.2791,-87.5561,1.5,30.3,11111222 
DISL,ioos:station:DISL:PPTA:1,2017-12-05T08:30:00Z,30.2791,-87.5561,1.445,29.68,1111122 
DISL,ioos:station:DISL:PPTA:1,2017-12-05T09:00:00Z,30.2791,-87.5561,1.4,30.4,11111222 
DISL,ioos:station:DISL:PPTA:1,2017-12-05T09:30:00Z,30.2791,-87.5561,1.39,30.41,1111122 
DISL,ioos:station:DISL:PPTA:1,2017-12-05T10:00:00Z,30.2791,-87.5561,1.4,30.2,11111222 
DISL,ioos:station:DISL:PPTA:1,2017-12-05T10:30:00Z,30.2791,-87.5561,1.345,28.93,1111122 
DISL,ioos:station:DISL:PPTA:1,2017-12-05T11:00:00Z,30.2791,-87.5561,1.3,29.2,11111222 
DISL,ioos:station:DISL:PPTA:1,2017-12-05T11:30:00Z,30.2791,-87.5561,1.327,27.65,1111122 
DISL,ioos:station:DISL:PPTA:1,2017-12-05T12:00:00Z,30.2791,-87.5561,1.3,26.9,11111222 
DISL,ioos:station:DISL:PPTA:1,2017-12-05T12:30:00Z,30.2791,-87.5561,1.29,25.74,1111122 
DISL,ioos:station:DISL:PPTA:1,2017-12-05T13:00:00Z,30.2791,-87.5561,1.3,25.7,11111222 
DISL,ioos:station:DISL:PPTA:1,2017-12-05T13:30:00Z,30.2791,-87.5561,1.257,25.76,1111122 
DISL,ioos:station:DISL:PPTA:1,2017-12-05T14:00:00Z,30.2791,-87.5561,1.3,25.1,11111222 
DISL,ioos:station:DISL:PPTA:1,2017-12-05T14:30:00Z,30.2791,-87.5561,1.243,24.56,1111122 
DISL,ioos:station:DISL:PPTA:1,2017-12-05T15:00:00Z,30.2791,-87.5561,1.2,24.5,11111222 
DISL,ioos:station:DISL:PPTA:1,2017-12-05T15:30:00Z,30.2791,-87.5561,1.215,23.79,1111122 
DISL,ioos:station:DISL:PPTA:1,2017-12-05T16:00:00Z,30.2791,-87.5561,1.2,23.4,11111222 
DISL,ioos:station:DISL:PPTA:1,2017-12-05T16:30:00Z,30.2791,-87.5561,1.223,22.78,1111122 
DISL,ioos:station:DISL:PPTA:1,2017-12-05T17:00:00Z,30.2791,-87.5561,1.2,22.7,11111222 
DISL,ioos:station:DISL:PPTA:1,2017-12-05T17:30:00Z,30.2791,-87.5561,1.222,22.6,1111122 
DISL,ioos:station:DISL:PPTA:1,2017-12-05T18:00:00Z,30.2791,-87.5561,1.2,21.9,11111222 
DISL,ioos:station:DISL:PPTA:1,2017-12-05T18:30:00Z,30.2791,-87.5561,1.266,20.91,1111122 
DISL,ioos:station:DISL:PPTA:1,2017-12-05T19:00:00Z,30.2791,-87.5561,1.3,24.8,11111222 
DISL,ioos:station:DISL:PPTA:1,2017-12-05T19:30:00Z,30.2791,-87.5561,1.262,23.7,1111122 
DISL,ioos:station:DISL:PPTA:1,2017-12-05T20:00:00Z,30.2791,-87.5561,1.3,23.9,11111222 
DISL,ioos:station:DISL:PPTA:1,2017-12-05T20:30:00Z,30.2791,-87.5561,1.282,25.16,1111122 
DISL,ioos:station:DISL:PPTA:1,2017-12-05T21:00:00Z,30.2791,-87.5561,1.3,27.1,11111222 
DISL,ioos:station:DISL:PPTA:1,2017-12-05T21:30:00Z,30.2791,-87.5561,1.303,28.45,1111122 
DISL,ioos:station:DISL:PPTA:1,2017-12-05T22:00:00Z,30.2791,-87.5561,1.3,28.6,11111222 
DISL,ioos:station:DISL:PPTA:1,2017-12-05T22:30:00Z,30.2791,-87.5561,1.344,29.46,1111122 
DISL,ioos:station:DISL:PPTA:1,2017-12-05T23:00:00Z,30.2791,-87.5561,1.4,29.1,11111222 
DISL,ioos:station:DISL:PPTA:1,2017-12-05T23:30:00Z,30.2791,-87.5561,1.392,28.93,1111122 
DISL,ioos:station:DISL:PPTA:1,2017-12-06T00:00:00Z,30.2791,-87.5561,1.4,29.7,11111222 
DISL,ioos:station:DISL:PPTA:1,2017-12-06T00:30:00Z,30.2791,-87.5561,1.446,29.68,1111122 
DISL,ioos:station:DISL:PPTA:1,2017-12-06T01:00:00Z,30.2791,-87.5561,1.5,29.7,11111222 
DISL,ioos:station:DISL:PPTA:1,2017-12-06T01:30:00Z,30.2791,-87.5561,1.51,29.7,1111122 
DISL,ioos:station:DISL:PPTA:1,2017-12-06T02:00:00Z,30.2791,-87.5561,1.5,29.7,11111222 
DISL,ioos:station:DISL:PPTA:1,2017-12-06T02:30:00Z,30.2791,-87.5561,1.541,29.59,1111122 
DISL,ioos:station:DISL:PPTA:1,2017-12-06T03:00:00Z,30.2791,-87.5561,1.5,29.7,11111222 
DISL,ioos:station:DISL:PPTA:1,2017-12-06T03:30:00Z,30.2791,-87.5561,1.522,29.74,1111122 
DISL,ioos:station:DISL:PPTA:1,2017-12-06T04:00:00Z,30.2791,-87.5561,1.5,29.9,11111222 
DISL,ioos:station:DISL:PPTA:1,2017-12-06T04:30:00Z,30.2791,-87.5561,1.543,29.84,1111122 
DISL,ioos:station:DISL:PPTA:1,2017-12-06T05:00:00Z,30.2791,-87.5561,1.5,30.1,11111222 
DISL,ioos:station:DISL:PPTA:1,2017-12-06T05:30:00Z,30.2791,-87.5561,1.553,29.65,1111122 
DISL,ioos:station:DISL:PPTA:1,2017-12-06T06:00:00Z,30.2791,-87.5561,1.6,30.1,11111222 
DISL,ioos:station:DISL:PPTA:1,2017-12-06T06:30:00Z,30.2791,-87.5561,1.557,30.44,1111122 
DISL,ioos:station:DISL:PPTA:1,2017-12-06T07:00:00Z,30.2791,-87.5561,1.5,30.4,11111222 
DISL,ioos:station:DISL:PPTA:1,2017-12-06T07:30:00Z,30.2791,-87.5561,1.502,30.4,1111122 
DISL,ioos:station:DISL:PPTA:1,2017-12-06T08:00:00Z,30.2791,-87.5561,1.5,30.0,11111222 
DISL,ioos:station:DISL:PPTA:1,2017-12-06T08:30:00Z,30.2791,-87.5561,1.43,29.98,1111122 
DISL,ioos:station:DISL:PPTA:1,2017-12-06T09:00:00Z,30.2791,-87.5561,1.4,29.7,11111222 
DISL,ioos:station:DISL:PPTA:1,2017-12-06T09:30:00Z,30.2791,-87.5561,1.401,29.58,1111122 
DISL,ioos:station:DISL:PPTA:1,2017-12-06T10:00:00Z,30.2791,-87.5561,1.4,29.5,11111222 
DISL,ioos:station:DISL:PPTA:1,2017-12-06T10:30:00Z,30.2791,-87.5561,1.344,28.98,1111122 
DISL,ioos:station:DISL:PPTA:1,2017-12-06T11:00:00Z,30.2791,-87.5561,1.3,27.2,11111222 
DISL,ioos:station:DISL:PPTA:1,2017-12-06T11:30:00Z,30.2791,-87.5561,1.294,26.83,1111122 
DISL,ioos:station:DISL:PPTA:1,2017-12-06T12:00:00Z,30.2791,-87.5561,1.3,26.4,11111222 
DISL,ioos:station:DISL:PPTA:1,2017-12-06T12:30:00Z,30.2791,-87.5561,1.283,25.93,1111122 
DISL,ioos:station:DISL:PPTA:1,2017-12-06T13:00:00Z,30.2791,-87.5561,1.3,25.8,11111222 
DISL,ioos:station:DISL:PPTA:1,2017-12-06T13:30:00Z,30.2791,-87.5561,1.237,24.91,1111122 
DISL,ioos:station:DISL:PPTA:1,2017-12-06T14:00:00Z,30.2791,-87.5561,1.2,24.8,11111222 
DISL,ioos:station:DISL:PPTA:1,2017-12-06T14:30:00Z,30.2791,-87.5561,1.217,24.27,1111122 
DISL,ioos:station:DISL:PPTA:1,2017-12-06T15:00:00Z,30.2791,-87.5561,1.2,24.6,11111222 
DISL,ioos:station:DISL:PPTA:1,2017-12-06T15:30:00Z,30.2791,-87.5561,1.164,23.32,1111122 
DISL,ioos:station:DISL:PPTA:1,2017-12-06T16:00:00Z,30.2791,-87.5561,1.2,23.1,11111222 